"2011/01/01", 6.2, 6.7, 5.6
"2011/01/02", 5.9, 6.7, 5.1
"2011/01/03", 6.1, 6.5, 5.5
"2011/01/04", 5.9, 6.3, 5.4
"2011/01/05", 5.9, 6.8, 5.4
"2011/01/06", 6.0, 6.7, 5.5
"2011/01/07", 5.0, 5.7, 4.2
"2011/01/08", 4.1, 4.8, 3.1
"2011/01/09", 4.7, 5.3, 4.0
"2011/01/10", 4.5, 5.0, 3.8
"2011/01/11", 4.3, 5.1, 3.3
"2011/01/12", 4.9, 5.7, 4.2
"2011/01/13", 4.0, 4.7, 3.2
"2011/01/14", 4.0, 4.9, 3.1
"2011/01/15", 4.2, 4.5, 3.6
"2011/01/16", 3.9, 4.5, 3.2
"2011/01/17", 3.9, 4.7, 3.1
"2011/01/18", 3.7, 4.4, 2.8
"2011/01/19", 4.3, 5.2, 3.6
"2011/01/20", 4.2, 5.2, 3.8
"2011/01/21", 4.0, 4.7, 3.4
"2011/01/22", 4.4, 5.2, 3.7
"2011/01/23", 4.4, 4.9, 3.9
"2011/01/24", 5.0, 6.0, 4.2
"2011/01/25", 5.0, 5.8, 4.5
"2011/01/26", 4.8, 5.5, 4.2
"2011/01/27", 5.1, 5.7, 4.3
"2011/01/28", 4.8, 5.5, 4.3
"2011/01/29", 4.5, 5.1, 3.8
"2011/01/30", 4.4, 5.2, 3.6
"2011/01/31", 3.9, 4.6, 3.4
"2011/02/01", 4.2, 5.2, 3.6
"2011/02/02", 4.3, 5.1, 3.6
"2011/02/03", 4.8, 5.8, 4.1
"2011/02/04", 5.4, 6.5, 4.7
"2011/02/05", 5.7, 6.5, 4.9
"2011/02/06", 6.3, 7.0, 5.5
"2011/02/07", 6.6, 8.2, 5.9
"2011/02/08", 5.9, 6.8, 5.2
"2011/02/09", 5.3, 5.6, 5.0
"2011/02/10", 5.6, 6.5, 5.0
"2011/02/11", 5.2, 5.8, 4.4
"2011/02/12", 4.3, 4.7, 3.7
"2011/02/13", 4.8, 5.7, 4.0
"2011/02/14", 4.7, 5.1, 4.1
"2011/02/15", 5.0, 6.0, 4.1
"2011/02/16", 5.9, 6.6, 5.1
"2011/02/17", 6.1, 6.6, 5.8
"2011/02/18", 7.1, 7.8, 6.1
"2011/02/19", 6.7, 7.2, 6.4
"2011/02/20", 6.6, 7.0, 5.9
"2011/02/21", 6.0, 6.8, 5.6
"2011/02/22", 5.9, 6.7, 5.0
"2011/02/23", 6.8, 8.0, 5.8
"2011/02/24", 7.5, 8.2, 7.0
"2011/02/25", 7.6, 8.8, 6.8
"2011/02/26", 7.7, 8.6, 6.8
"2011/02/27", 8.1, 8.8, 7.5
"2011/02/28", 7.4, 8.4, 6.6
"2011/03/01", 7.0, 7.6, 6.3
"2011/03/02", 7.7, 9.1, 7.1
"2011/03/03", 7.2, 8.1, 6.6
"2011/03/04", 6.4, 7.1, 5.6
"2011/03/05", 6.5, 8.0, 5.2
"2011/03/06", 7.3, 8.3, 6.6
"2011/03/07", 7.2, 7.7, 6.6
"2011/03/08", 6.9, 8.0, 6.0
"2011/03/09", 7.5, 8.4, 6.6
"2011/03/10", 7.7, 8.9, 6.9
"2011/03/11", 7.5, 9.0, 6.8
"2011/03/12", 7.6, 8.7, 6.4
"2011/03/13", 7.9, 9.9, 7.5
"2011/03/14", 8.3, 9.3, 7.5
"2011/03/15", 9.0, 9.3, 8.6
"2011/03/16", 9.1,10.6, 7.7
"2011/03/17", 7.9, 9.0, 6.6
"2011/03/18", 7.5, 9.4, 5.2
"2011/03/19", 8.7, 9.4, 8.0
"2011/03/20", 9.7,10.8, 8.7
"2011/03/21",10.0,10.8, 9.2
"2011/03/22", 8.9, 9.4, 8.3
"2011/03/23", 8.8, 9.4, 7.9
"2011/03/24", 8.0, 8.8, 6.8
"2011/03/25", 8.7,10.3, 7.6
"2011/03/26", 9.3,10.6, 8.5
"2011/03/27", 9.0,10.9, 7.3
"2011/03/28", 9.6,11.5, 8.2
"2011/03/29", 9.7,11.8, 8.9
"2011/03/30",10.1,11.0, 9.2
"2011/03/31",11.2,13.1, 9.9
"2011/04/01",11.2,13.0,10.2
"2011/04/02",11.4,12.6,10.6
"2011/04/03",10.8,11.6,10.1
"2011/04/04",10.4,11.9, 9.4
"2011/04/05",10.2,12.7, 8.7
"2011/04/06",11.4,13.6,10.3
"2011/04/07",11.9,13.3,11.0
"2011/04/08",13.3,14.0,12.8
"2011/04/09",12.9,13.3,12.6
"2011/04/10",13.0,14.1,12.4
"2011/04/11",13.3,14.2,12.7
"2011/04/12",13.2,14.6,11.8
"2011/04/13",13.0,14.2,12.1
"2011/04/14",14.0,17.0,12.7
"2011/04/15",15.1,16.7,13.6
"2011/04/16",15.5,16.0,14.7
"2011/04/17",14.8,17.0,12.8
"2011/04/18",15.1,15.9,14.4
"2011/04/19",14.8,15.9,13.6
"2011/04/20",14.3,16.2,12.0
"2011/04/21",14.2,14.7,13.5
"2011/04/22",14.4,15.5,13.7
"2011/04/23",15.1,15.7,14.6
"2011/04/24",15.8,17.3,15.0
"2011/04/25",15.5,16.2,14.7
"2011/04/26",15.6,17.1,15.1
"2011/04/27",17.0,18.4,15.2
"2011/04/28",17.0,17.6,16.1
"2011/04/29",16.6,18.2,15.1
"2011/04/30",17.1,18.1,16.2
"2011/05/01",17.1,17.4,16.9
"2011/05/02",17.5,18.8,16.6
"2011/05/03",17.1,17.5,16.4
"2011/05/04",17.2,19.3,15.8
"2011/05/05",17.2,17.8,16.6
"2011/05/06",16.6,17.5,15.8
"2011/05/07",16.9,17.3,16.6
"2011/05/08",17.0,17.5,16.7
"2011/05/09",17.7,19.3,16.4
"2011/05/10",18.3,18.9,18.0
"2011/05/11",18.2,18.7,17.7
"2011/05/12",17.6,17.8,17.2
"2011/05/13",17.9,19.5,17.1
"2011/05/14",18.4,18.8,18.0
"2011/05/15",18.4,19.3,17.5
"2011/05/16",18.8,19.7,17.9
"2011/05/17",18.6,18.9,18.4
"2011/05/18",19.1,20.4,17.9
"2011/05/19",19.4,20.0,18.9
"2011/05/20",19.4,19.8,18.8
"2011/05/21",19.6,20.2,18.9
"2011/05/22",20.0,20.9,19.1
"2011/05/23",19.0,19.4,18.4
"2011/05/24",18.2,19.1,16.9
"2011/05/25",18.9,20.8,17.9
"2011/05/26",19.5,20.1,18.9
"2011/05/27",19.6,20.0,19.3
"2011/05/28",19.6,20.0,19.4
"2011/05/29",19.3,19.5,18.9
"2011/05/30",18.4,18.9,17.3
"2011/05/31",17.4,18.0,16.6
"2011/06/01",17.2,18.3,15.9
"2011/06/02",17.4,17.5,17.2
"2011/06/03",17.8,20.4,17.3
"2011/06/04",17.9,19.5,17.5
"2011/06/05",18.4,20.8,17.7
"2011/06/06",20.1,24.3,18.1
"2011/06/07",19.7,20.4,19.3
"2011/06/08",20.0,20.7,19.5
"2011/06/09",20.9,23.5,19.5
"2011/06/10",20.5,20.9,20.1
"2011/06/11",21.1,21.6,20.4
"2011/06/12",21.4,22.6,21.1
"2011/06/13",21.5,22.4,20.7
"2011/06/14",21.8,22.3,21.3
"2011/06/15",21.8,22.4,21.4
"2011/06/16",21.6,22.3,21.0
"2011/06/17",21.3,21.6,20.8
"2011/06/18",21.1,21.6,20.5
"2011/06/19",21.5,22.8,21.0
"2011/06/20",21.7,22.0,21.4
"2011/06/21",21.9,22.5,21.4
"2011/06/22",23.4,26.8,22.2
"2011/06/23",23.4,24.2,22.7
"2011/06/24",24.3,25.2,23.4
"2011/06/25",24.2,24.7,23.4
"2011/06/26",23.5,23.8,23.0
"2011/06/27",23.2,23.6,22.9
"2011/06/28",24.5,27.0,23.2
"2011/06/29",25.1,27.4,23.6
"2011/06/30",25.0,26.3,24.1
"2011/07/01",26.4,28.7,24.6
"2011/07/02",26.5,27.0,25.8
"2011/07/03",26.4,27.4,25.6
"2011/07/04",27.1,28.4,26.2
"2011/07/05",27.2,28.5,26.5
"2011/07/06",27.4,28.5,26.2
"2011/07/07",27.2,27.7,26.7
"2011/07/08",26.9,27.4,26.5
"2011/07/09",27.0,27.2,26.8
"2011/07/10",26.7,27.1,26.4
"2011/07/11",28.4,31.0,26.5
"2011/07/12",27.9,28.9,27.1
"2011/07/13",28.2,29.1,27.4
"2011/07/14",28.3,29.2,27.5
"2011/07/15",28.9,30.6,27.7
"2011/07/16",29.5,30.7,28.9
"2011/07/17",29.4,29.8,28.9
"2011/07/18",29.4,29.9,28.6
"2011/07/19",29.0,29.6,28.4
"2011/07/20",28.3,28.8,26.9
"2011/07/21",25.3,26.8,23.8
"2011/07/22",24.0,25.4,22.5
"2011/07/23",23.6,24.4,22.4
"2011/07/24",24.5,26.3,23.0
"2011/07/25",25.1,26.0,24.5
"2011/07/26",25.1,25.5,24.7
"2011/07/27",25.6,27.0,25.0
"2011/07/28",25.8,26.3,25.4
"2011/07/29",25.9,26.6,25.5
"2011/07/30",26.4,27.2,25.8
"2011/07/31",25.6,26.0,25.1
"2011/08/01",25.5,26.4,24.5
"2011/08/02",25.9,26.8,25.0
"2011/08/03",26.4,27.4,25.6
"2011/08/04",27.1,28.2,26.2
"2011/08/05",27.2,27.8,26.8
"2011/08/06",27.5,28.9,27.1
"2011/08/07",28.1,29.8,27.3
"2011/08/08",28.5,30.4,27.3
"2011/08/09"," *"," *"," *"
"2011/08/10"," *"," *"," *"
"2011/08/11",29.4,31.6,27.6
"2011/08/12",29.7,31.8,29.0
"2011/08/13",30.2,31.7,29.1
"2011/08/14"," *"," *"," *"
"2011/08/15"," *"," *"," *"
"2011/08/16",30.2,31.8,29.2
"2011/08/17",29.9,30.2,29.5
"2011/08/18",30.0,30.6,29.2
"2011/08/19",28.6,30.0,27.1
"2011/08/20",27.4,28.0,26.9
"2011/08/21",26.0,27.8,24.4
"2011/08/22",25.2,25.9,24.4
"2011/08/23",26.0,27.4,25.0
"2011/08/24"," *"," *"," *"
"2011/08/25",26.7,26.8,26.5
"2011/08/26"," *"," *"," *"
"2011/08/27"," *"," *"," *"
"2011/08/28"," *"," *"," *"
"2011/08/29"," *"," *"," *"
"2011/08/30"," *"," *"," *"
"2011/08/31"," *"," *"," *"
"2011/09/01",27.5,28.1,27.0
"2011/09/02",27.6,28.2,27.1
"2011/09/03",27.8,28.6,27.3
"2011/09/04",27.5,28.0,27.2
"2011/09/05",27.6,28.5,26.6
"2011/09/06",27.1,28.2,26.0
"2011/09/07",27.1,29.1,25.6
"2011/09/08",27.5,29.1,26.7
"2011/09/09",27.1,27.8,26.8
"2011/09/10",26.8,27.5,26.4
"2011/09/11",27.3,28.0,26.4
"2011/09/12",27.8,29.2,27.1
"2011/09/13",27.7,28.4,27.4
"2011/09/14",28.4,30.2,27.0
"2011/09/15",28.4,29.5,28.0
"2011/09/16"," *"," *"," *"
"2011/09/17",28.2,28.6,27.9
"2011/09/18",27.9,28.5,27.0
"2011/09/19",27.5,28.4,26.5
"2011/09/20",25.4,26.4,24.7
"2011/09/21",24.6,25.1,23.3
"2011/09/22",24.3,24.9,23.7
"2011/09/23",23.6,24.1,23.1
"2011/09/24",23.3,24.6,22.2
"2011/09/25",23.0,23.5,22.5
"2011/09/26",22.0,22.7,21.1
"2011/09/27",21.5,22.4,20.6
"2011/09/28",21.2,22.0,20.2
"2011/09/29",21.5,23.3,20.3
"2011/09/30",21.8,22.2,21.5
"2011/10/01",22.0,22.4,21.3
"2011/10/02",20.8,21.4,20.3
"2011/10/03",20.4,21.9,18.9
"2011/10/04",20.3,21.9,18.9
"2011/10/05",19.9,20.6,19.4
"2011/10/06",20.3,21.7,19.4
"2011/10/07",20.6,21.5,20.1
"2011/10/08",20.1,21.0,19.4
"2011/10/09",20.0,20.7,19.4
"2011/10/10",20.2,21.1,19.6
"2011/10/11",20.2,21.0,19.8
"2011/10/12",20.3,21.8,19.3
"2011/10/13",20.6,21.3,19.9
"2011/10/14"," *"," *"," *"
"2011/10/15"," *"," *"," *"
"2011/10/16"," *"," *"," *"
"2011/10/17"," *"," *"," *"
"2011/10/18"," *"," *"," *"
"2011/10/19"," *"," *"," *"
"2011/10/20"," *"," *"," *"
"2011/10/21"," *"," *"," *"
"2011/10/22"," *"," *"," *"
"2011/10/23"," *"," *"," *"
"2011/10/24"," *"," *"," *"
"2011/10/25"," *"," *"," *"
"2011/10/26"," *"," *"," *"
"2011/10/27"," *"," *"," *"
"2011/10/28"," *"," *"," *"
"2011/10/29"," *"," *"," *"
"2011/10/30"," *"," *"," *"
"2011/10/31"," *"," *"," *"
"2011/11/01",18.0,18.8,17.2
"2011/11/02",17.9,19.5,17.0
"2011/11/03",18.3,18.7,17.9
"2011/11/04",18.2,18.8,17.5
"2011/11/05",18.5,19.3,17.7
"2011/11/06",18.3,18.6,18.0
"2011/11/07",18.3,19.3,17.7
"2011/11/08"," *"," *"," *"
"2011/11/09",16.7,17.6,15.4
"2011/11/10",16.2,16.9,15.5
"2011/11/11",15.5,16.3,14.9
"2011/11/12",15.8,16.8,14.7
"2011/11/13",16.6,17.5,15.9
"2011/11/14",16.9,17.3,16.2
"2011/11/15",15.9,16.6,15.3
"2011/11/16",15.3,16.2,14.6
"2011/11/17",15.0,15.6,14.3
"2011/11/18",14.3,14.9,13.7
"2011/11/19",14.5,15.3,13.9
"2011/11/20",15.2,15.8,14.7
"2011/11/21",14.4,15.2,13.7
"2011/11/22",13.3,14.4,12.2
"2011/11/23",13.8,14.7,12.9
"2011/11/24",14.1,14.7,13.7
"2011/11/25"," *"," *"," *"
"2011/11/26",12.7,14.1,11.8
"2011/11/27",12.8,13.2,12.3
"2011/11/28",12.5,12.8,12.1
"2011/11/29",12.9,13.4,12.5
"2011/11/30",13.3,14.0,12.8
"2011/12/01",11.9,12.8,10.8
"2011/12/02",10.2,10.8, 9.9
"2011/12/03",10.9,11.6,10.0
"2011/12/04",11.5,12.2,11.1
"2011/12/05",11.3,12.4,10.5
"2011/12/06",10.6,11.1, 9.8
"2011/12/07",10.3,11.4, 9.1
"2011/12/08",10.5,11.0, 9.6
"2011/12/09", 9.0, 9.6, 8.4
"2011/12/10", 8.6, 9.2, 7.7
"2011/12/11", 8.8, 9.6, 8.1
"2011/12/12", 8.7, 9.4, 8.0
"2011/12/13", 9.1, 9.9, 8.4
"2011/12/14", 8.6, 9.0, 8.0
"2011/12/15", 8.9, 9.7, 8.2
"2011/12/16", 8.9, 9.5, 8.5
"2011/12/17", 8.0, 8.7, 7.3
"2011/12/18", 7.7, 8.3, 7.0
"2011/12/19", 6.9, 7.6, 6.1
"2011/12/20", 7.1, 7.9, 6.2
"2011/12/21", 6.4, 7.0, 5.9
"2011/12/22", 6.6, 7.0, 6.3
"2011/12/23", 5.8, 6.6, 5.1
"2011/12/24", 5.7, 6.9, 4.7
"2011/12/25", 5.8, 6.3, 5.3
"2011/12/26", 5.5, 6.0, 5.0
"2011/12/27", 5.0, 5.5, 4.1
"2011/12/28", 4.2, 5.2, 3.3
"2011/12/29", 4.9, 5.3, 4.1
"2011/12/30", 4.8, 5.5, 4.2
"2011/12/31", 4.5, 5.1, 3.7
